| time (UTC) | temp F | wind direction | speed MPH | gust MPH | rain 1hr in | rain 24hr in | rain mn in | humidity % | barometer mb |
| 20260504081504 | 49 | 208 | 1.0 | 4.0 | 0.00 | 0.00 | 0.00 | 58 | 1014.1 |
| 20260504044540 | 52 | 200 | 1.0 | 5.0 | 0.00 | 0.00 | 0.00 | 53 | 1014.0 |
| 20260504043044 | 52 | 243 | 2.0 | 7.0 | 0.00 | 0.00 | 0.00 | 52 | 1014.0 |
| 20260504041539 | 52 | 184 | 0.0 | 6.0 | 0.00 | 0.00 | 0.00 | 52 | 1014.0 |
| 20260504040047 | 53 | 232 | 2.0 | 6.0 | 0.00 | 0.00 | 0.00 | 51 | 1013.7 |
| 20260504034539 | 53 | 204 | 3.0 | 7.0 | 0.00 | 0.00 | 0.00 | 50 | 1013.7 |
| 20260504033041 | 53 | 207 | 1.0 | 6.0 | 0.00 | 0.00 | 0.00 | 51 | 1013.4 |
| 20260504031536 | 52 | 253 | 0.0 | 4.0 | 0.00 | 0.00 | 0.00 | 50 | 1013.4 |
| 20260504030041 | 53 | 192 | 0.0 | 3.0 | 0.00 | 0.00 | 0.00 | 50 | 1013.4 |
| 20260504024537 | 53 | 237 | 0.0 | 3.0 | 0.00 | 0.00 | 0.00 | 48 | 1013.4 |
| 20260504023036 | 53 | 202 | 0.0 | 4.0 | 0.00 | 0.00 | 0.00 | 48 | 1013.4 |
| 20260504021536 | 53 | 245 | 0.0 | 3.0 | 0.00 | 0.00 | 0.00 | 49 | 1013.5 |
| 20260504020041 | 53 | 234 | 1.0 | 3.0 | 0.00 | 0.00 | 0.00 | 48 | 1013.5 |
| 20260504014537 | 53 | 215 | 0.0 | 2.0 | 0.00 | 0.00 | 0.00 | 49 | 1013.4 |
| 20260504013036 | 54 | 201 | 0.0 | 3.0 | 0.00 | 0.00 | 0.00 | 49 | 1013.3 |
| 20260504011533 | 54 | 220 | 1.0 | 2.0 | 0.00 | 0.00 | 0.00 | 48 | 1013.3 |
| 20260504010031 | 55 | 234 | 0.0 | 2.0 | 0.00 | 0.00 | 0.00 | 47 | 1013.1 |
| 20260504004530 | 55 | 250 | 1.0 | 3.0 | 0.00 | 0.00 | 0.00 | 45 | 1013.0 |
| 20260504003031 | 56 | 233 | 0.0 | 3.0 | 0.00 | 0.00 | 0.00 | 44 | 1012.8 |
| 20260504001532 | 57 | 201 | 0.0 | 5.0 | 0.00 | 0.00 | 0.00 | 43 | 1012.6 |
| 20260504000028 | 57 | 223 | 0.0 | 4.0 | 0.00 | 0.00 | 0.00 | 44 | 1012.4 |
| 20260503234529 | 58 | 252 | 1.0 | 6.0 | 0.00 | 0.00 | 0.00 | 42 | 1012.3 |
| 20260503233026 | 59 | 281 | 1.0 | 8.0 | 0.00 | 0.00 | 0.00 | 41 | 1012.3 |
| 20260503231527 | 59 | 256 | 1.0 | 6.0 | 0.00 | 0.00 | 0.00 | 42 | 1012.2 |
| 20260503230031 | 60 | 335 | 1.0 | 10.0 | 0.00 | 0.00 | 0.00 | 41 | 1012.0 |
| 20260503224526 | 61 | 284 | 1.0 | 10.0 | 0.00 | 0.00 | 0.00 | 39 | 1012.2 |
| 20260503223026 | 61 | 314 | 2.0 | 10.0 | 0.00 | 0.00 | 0.00 | 38 | 1012.0 |
| 20260503221525 | 61 | 103 | 1.0 | 12.0 | 0.00 | 0.00 | 0.00 | 40 | 1012.0 |
| 20260503220024 | 62 | 306 | 2.0 | 12.0 | 0.00 | 0.00 | 0.00 | 37 | 1012.2 |
| 20260503214537 | 63 | 244 | 3.0 | 12.0 | 0.00 | 0.00 | 0.00 | 37 | 1012.1 |
| 20260503213026 | 62 | 236 | 4.0 | 15.0 | 0.00 | 0.00 | 0.00 | 37 | 1012.0 |
| 20260503211522 | 62 | 218 | 1.0 | 7.0 | 0.00 | 0.00 | 0.00 | 38 | 1011.8 |
| 20260503210024 | 60 | 38 | 1.0 | 8.0 | 0.00 | 0.00 | 0.00 | 39 | 1012.0 |
| 20260503204523 | 61 | 292 | 3.0 | 9.0 | 0.00 | 0.00 | 0.00 | 37 | 1012.1 |
| 20260503203020 | 61 | 304 | 4.0 | 15.0 | 0.00 | 0.00 | 0.00 | 38 | 1012.2 |
| 20260503201518 | 63 | 248 | 3.0 | 14.0 | 0.00 | 0.00 | 0.00 | 37 | 1012.2 |
| 20260503200017 | 63 | 310 | 4.0 | 11.0 | 0.00 | 0.00 | 0.00 | 38 | 1012.4 |
| 20260503194520 | 60 | 280 | 2.0 | 12.0 | 0.00 | 0.00 | 0.00 | 39 | 1012.5 |
| 20260503193018 | 61 | 326 | 3.0 | 8.0 | 0.00 | 0.00 | 0.00 | 40 | 1012.7 |
| 20260503191518 | 61 | 253 | 5.0 | 20.0 | 0.00 | 0.00 | 0.00 | 38 | 1013.0 |
| 20260503190014 | 62 | 5 | 3.0 | 9.0 | 0.00 | 0.00 | 0.00 | 37 | 1013.1 |
| 20260503184513 | 61 | 314 | 5.0 | 12.0 | 0.00 | 0.00 | 0.00 | 40 | 1013.3 |
| 20260503183009 | 60 | 252 | 4.0 | 12.0 | 0.00 | 0.00 | 0.00 | 40 | 1013.5 |
| 20260503181509 | 59 | 336 | 3.0 | 15.0 | 0.00 | 0.00 | 0.00 | 39 | 1013.6 |
| 20260503180018 | 59 | 335 | 3.0 | 13.0 | 0.00 | 0.00 | 0.00 | 42 | 1013.6 |
| 20260503174516 | 58 | 10 | 4.0 | 13.0 | 0.00 | 0.00 | 0.00 | 44 | 1013.7 |
| 20260503173007 | 59 | 298 | 7.0 | 14.0 | 0.00 | 0.00 | 0.00 | 41 | 1013.8 |
| 20260503171508 | 58 | 312 | 4.0 | 12.0 | 0.00 | 0.00 | 0.00 | 42 | 1013.9 |